www.pogodaiklimat.ru

Погода и климат >> Архив погоды >> Чад >> Sarh


ПОГОДА в Sarh

  • Прогноз погоды в Sarh
  • Монитор погоды в Sarh
  • Климат города

АРХИВ ПОГОДЫ в Sarh

Время (UTC), дата Ветер
(напр.,м/с)
 
Видим.   Явления Облачность Т
(С)
Тd
(С)
f
(%)
Тe
(С)
Тes
(С)
Комфортность P
(гПа)
Po
(гПа)
Тmin
(С)
Tmax
(С)
R
(мм)
R24
(мм)
S
(см)
03 18.01 штиль 0 10 км 9/0
[Ci sp]
+16.6 +5.2 47 +17 +17 1009.9 969.2
06 18.01 С 4 10 км 9/0
[Ci sp]
+16.0 +1.6 38 +15 +16 1012.4 970.8 +15.2
09 18.01 В 5 10 км 9/0
[Ci sp]
+29.0 -4.3 11 +26 +31 жарко 1012.8 971.6
12 18.01 СЗ 7 10 км 9/0
[Ci sp]
+34.6 -1.5 10 +31 +34 жарко 1010.3 969.5
15 18.01 СЗ 5 10 км 9/0
[Ci sp]
+35.2 +5.4 16 +31 +32 жарко 1007.5 966.6
18 18.01 штиль 0 10 км 9/0
[Ci sp]
+25.5 +8.2 33 +26 +26 жарко 1009.6 968.1 +36.0
21 18.01 штиль 0 10 км 9/0
[Ci sp]
+20.3 +4.9 36 +21 +21 комфорт 1012.2 971.1
00 19.01 штиль 0 10 км 9/0
[Ci sp]
+17.5 +9.1 58 +18 +18 1010.3 969.5
03 19.01 штиль 0 10 км 9/0
[Ci sp]
+17.0 +1.7 36 +17 +17 1010.0 969.2
06 19.01 З 3 10 км 9/0
[Ci sp]
+15.0 +3.1 45 +14 +15 1012.2 970.5 +15.0
09 19.01 СВ 3 10 км 9/0
[Ci sp]
+29.2 -3.1 12 +26 +35 жарко 1012.1 971.0
12 19.01 С 2 10 км 9/0
[Ci sp]
+34.0 -5.7 8 +30 +42 жарко 1010.9 969.9
15 19.01 Ю 3 10 км 9/0
[Ci sp]
+36.5 +0.8 11 +33 +35 жарко 1008.4 967.7
18 19.01 штиль 0 10 км 9/0
[Ci sp]
+27.0 +9.3 33 +27 +27 жарко 1009.7 968.3 +37.0
21 19.01 штиль 0 10 км 9/0
[Ci sp]
+20.5 +7.1 42 +21 +21 комфорт 1010.0 969.0
00 20.01 штиль 0 10 км 9/0
[Ci sp]
+17.5 +9.1 58 +18 +18 1010.2 969.4
03 20.01 штиль 0 10 км 9/0
[Ci sp]
+18.3 +4.4 40 +18 +18 1010.1 969.5
06 20.01 штиль 0 10 км 9/0
[Ci sp]
+14.5 +7.6 63 +14 +16 1012.0 970.4 +14.2
09 20.01 СВ 4 10 км 9/0
[Ci sp]
+28.5 +7.1 26 +26 +33 жарко 1012.0 970.8
12 20.01 В 7 10 км 9/0
[Ci sp]
+35.3 +4.9 15 +33 +36 жарко 1009.1 968.4
15 20.01 штиль 0 10 км 9/0
[Ci sp]
+36.5 +2.9 12 +33 +36 жарко 1006.9 966.4
18 20.01 штиль 0 10 км 9/0
[Ci sp]
+27.6 +8.7 30 +27 +27 жарко 1009.0 967.6 +37.0
21 20.01 штиль 0 8000 м пыль 9/0
[Ci sp]
+22.2 +9.1 43 +24 +24 комфорт 1010.8 969.9
00 21.01 штиль 0 10 км 9/0
[Ci sp]
+20.0 +10.9 56 +21 +21 комфорт 1009.7 969.2
03 21.01 В 2 10 км 9/0
[Ci sp]
+18.0 +9.7 58 +19 +19 1009.8 969.2
06 21.01 штиль 0 10 км 9/0
[Ci sp]
+14.2 +6.8 61 +14 +15 1012.1 970.5 +14.0
09 21.01 СВ 3 10 км 9/0
[Ci sp]
+29.0 -1.8 13 +26 +35 жарко 1012.4 971.4
12 21.01 В 1 10 км 9/0
[Ci sp]
+34.0 +2.6 14 +31 +46 жарко 1009.2 968.5
15 21.01 штиль 0 10 км 9/0
[Ci sp]
+35.5 +2.4 13 +32 +36 жарко 1007.6 969.9
18 21.01 штиль 0 10 км 9/0
[Ci sp]
+26.8 +10.7 36 +28 +28 жарко 1010.0 968.5 +36.3
21 21.01 штиль 0 10 км 9/0
[Ci sp]
+21.0 +7.9 43 +22 +22 комфорт 1010.1 969.2
00 22.01 штиль 0 10 км 9/0
[Ci sp]
+20.5 +7.1 42 +21 +21 комфорт 1009.9 969.2
03 22.01 штиль 0 10 км 9/0
[Ci sp]
+18.8 +5.1 40 +19 +19 1010.2 969.5
06 22.01 СЗ 3 10 км 9/0
[Ci sp]
+19.0 -1.0 26 +19 +20 1011.9 970.5 +15.0
09 22.01 С 7 10 км 9/0
[Ci sp]
+29.7 -7.9 8 +26 +29 жарко 1012.9 971.8
12 22.01 С 6 10 км 9/0
[Ci sp]
+35.0 +1.1 12 +32 +36 жарко 1008.8 968.2
15 22.01 С 3 10 км 9/0
[Ci sp]
+36.3 -3.8 8 +32 +34 жарко 1006.6 966.0
18 22.01 штиль 0 10 км 9/0
[Ci sp]
+33.2 -8.0 7 +29 +31 жарко 1008.2 967.1 +36.5
21 22.01 С 4 10 км 9/0
[Ci sp]
+27.4 -3.8 13 +25 +25 комфорт 1010.9 970.3
00 23.01 штиль 0 10 км 9/0
[Ci sp]
+20.6 +4.8 35 +21 +21 комфорт 1009.9 969.3
03 23.01 СЗ 4 10 км 9/0
[Ci sp]
+19.8 -2.5 22 +20 +20 1008.7 968.1
06 23.01 С 4 10 км 9/0
[Ci sp]
+18.3 -4.6 21 +18 +19 1010.6 969.2 +17.5
09 23.01 С 4 10 км 9/0
[Ci sp]
+27.6 -2.7 14 +25 +32 комфорт 1010.7 969.9
12 23.01 В 5 10 км 9/0
[Ci sp]
+34.6 -0.5 11 +31 +37 жарко 1007.8 967.3
15 23.01 С 2 10 км 9/0
[Ci sp]
+36.0 +3.1 13 +32 +34 жарко 1006.4 965.9
18 23.01 штиль 0 10 км 9/0
[Ac trans Ci sp]
+27.6 +8.7 30 +27 +27 жарко 1008.5 967.3 +37.2
21 23.01 штиль 0 10 км 9/0
[Ci sp]
+22.0 +10.4 48 +24 +24 комфорт 1009.5 968.6
00 24.01 СЗ 2 10 км 9/0
[Ci sp]
+22.5 +1.2 24 +22 +22 комфорт 1009.5 969.0
03 24.01 штиль 0 10 км 9/0
[Ci sp]
+18.0 +5.9 45 +18 +18 1009.2 968.6
06 24.01 З 3 10 км 9/0
[Ci sp]
+17.2 +3.8 41 +17 +18 1011.8 970.4 +15.8
09 24.01 штиль 0 10 км 9/0
[Ci sp]
+17.5 -1.2 28 +18 +33 опасность
простуды
1012.5 971.3

 

Местоположение метеостанции Sarh (Чад): широта 9.15 долгота 18.38 высота над уровнем моря 365 м.

В архиве по умолчанию представлена погода в Sarh за последнюю неделю. Архивные данные за месяц целиком и за предыдущие месяцы, начиная с января 2011 года, Вы можете получить, выбрав интересующий диапазон дат из раскрывающегося списка и нажав кнопку "Ввод!".

Внимание! Время в таблицах - всемирное. Для получения местного времени необходимо прибавить поправку, которая в Sarh равна 1 ч.

Смотрите также архив погоды в соседних городах и на ближайших метеорологических станциях:

Погода в Bousso (Чад) (234 км)
Погода в Moundou (Чад) (262 км)
Погода в Am-Timan (Чад) (295 км)
Погода в Bossangoa (ЦАР) (315 км)
Погода в Mongo (Чад) (339 км)
Погода в Pala (Чад) (380 км)
Погода в Bokoro (Чад) (388 км)
Погода в Bambari (ЦАР) (444 км)
Погода в Ati (Чад) (453 км)
Погода в Bouar (ЦАР) (466 км)

Пояснения к столбцам:

Ветер - указаны скорость ветра в м/с - средняя за 10 мин, порывы в срок и между сроками (в фигурных скобках) и направление, откуда дует ветер: С - северный, СВ - северо-восточный, В - восточный, ЮВ - юго-восточный, Ю - южный, ЮЗ - юго-западный, З - западный, СЗ - северо-западный.
Видимость - горизонтальная дальность видимости в метрах или километрах. При видимости от 1 до 10 км при отсутствии осадков обычно наблюдается дымка, при ухудшении видимости до 1 км и менее - туман. В сухую погоду видимость может ухудшаться дымом, пылью или мглою.
Явления - указаны атмосферные явления, наблюдавшиеся в срок или в последний час перед сроком; фигурными скобками обозначены явления, наблюдавшиеся между сроками (за 1-3 часа до срока); квадратными скобками обозначены град или гололедные отложения с указанием их диаметра в мм.
Облачность - указаны через наклонную черту общая и нижняя облачность в баллах и высота нижней границы облаков в метрах; квадратными скобками обозначены формы облаков: Ci - перистые, Cs - перисто-слоистые, Cc - перисто-кучевые, Ac - высококучевые, As - высокослоистые, Sc - слоисто-кучевые, Ns - слоисто-дождевые, Cu - кучевые, Cb - кучево-дождевые. Подробнее классификацию облаков см. в Атласе облаков (PDF).
T - Температура воздуха - температура, измеренная на высоте 2 м над землей.
Td - Температура точки росы - температура, при понижении до которой содержащийся в воздухе водяной пар достигнет насыщения.
f - Относительная влажность воздуха - влажноcть воздуха, измеренная на высоте 2 м над землей.
Te - Эффективная температура - температура, которую ощущает одетый по сезону человек в тени. Характеристика душности погоды. При расчете учитывается влияние влажности воздуха и скорости ветра на теплоощущения человека.
Tes - Эффективная температура на солнце - температура, которую ощущает человек, с поправкой на солнечный нагрев. Характеристика знойности погоды. Зависит от высоты солнца над горизонтом, облачности и скорости ветра. Ночью, в пасмурную погоду, а также при ветре 12 м/с и более поправка равна нулю.
P - Атмосферное давление - приведенное к уровню моря атмосферное давление.
Po - Атмосферное давление - измеренное на уровне метеостанции атмосферное давление.
Tmin - Минимальная температура - минимум температуры воздуха на высоте 2 м над землей.
Tmax - Максимальная температура - максимум температуры воздуха на высоте 2 м над землей.
R - Количество осадков - Количество выпавших осадков за период времени, мм. При наведении курсора мыши на число - период времени, за который выпало указанное количество осадков.
R24 - Количество осадков - Количество выпавших осадков за 24 часа, мм.
S - Снежный покров - Высота снежного покрова, см. При наведении курсора мыши на число - состояние снежного покрова и степень покрытия местности в баллах.